Walterboro, SC

1:23 AM EDT on May 28, 2017 (GMT -0400)
Lowcountry Regional

Weather History for KRBW - December, 2012

Change the Weather History Date:

Friday, December 28, 2012

  Actual Average Record
Temperature  
Mean Temperature 42 °F -  
Max Temperature 53 °F 60 °F 77 °F (2014)
Min Temperature 30 °F 39 °F 21 °F (2010)
Degree Days  
Heating Degree Days 24    
Moisture  
Dew Point 37 °F    
Average Humidity 82    
Maximum Humidity 100    
Minimum Humidity 51    
Precipitation  
Precipitation 0.00 in - - ()
Sea Level Pressure  
Sea Level Pressure 30.07 in    
Wind  
Wind Speed 1 mph (East)    
Max Wind Speed 7 mph    
Max Gust Speed -    
Visibility 10 miles    
Events      
Averages and records for this station are not official NWS values.
T = Trace of Precipitation, MM = Missing Value Source: NWS Daily Summary

Daily Weather History Graph

Daily Weather History Graph

Search for Another Location

Airport or City:

Trip Planner

Search our weather history database for the weather conditions in past years. The results will help you decide how hot, cold, wet, or windy it might be!

Date:

Astronomy

Dec. 28, 2012 Rise Set
Actual Time 7:24 AM EST 5:24 PM EST
Civil Twilight 6:57 AM EST 5:51 PM EST
Nautical Twilight 6:26 AM EST 6:22 PM EST
Astronomical Twilight 5:56 AM EST 6:52 PM EST
Moon 5:56 PM EST 7:20 AM EST
Length of Visible Light 10h 54m
Length of Day
10h 00m
Full, 100% of the Moon is Illuminated
Dec 28
Full
Jan 4
Last Quarter
Jan 11
New
Jan 18
First Quarter
Jan 26
Full

Hourly Weather History & Observations

Time (EST) Temp. Windchill Dew Point Humidity Pressure Visibility Wind Dir Wind Speed Gust Speed Precip Events Conditions
12:15 AM 32.0 °F - 32.0 °F 100% 30.08 in 10.0 mi Calm Calm - N/A   Clear
12:35 AM 32.0 °F - 32.0 °F 100% 30.07 in 10.0 mi Calm Calm - N/A   Clear
12:55 AM 32.0 °F - 32.0 °F 100% 30.07 in 10.0 mi Calm Calm - N/A   Clear
1:15 AM 32.0 °F - 32.0 °F 100% 30.07 in 10.0 mi Calm Calm - N/A   Clear
1:35 AM 32.0 °F - 32.0 °F 100% 30.08 in 10.0 mi Calm Calm - N/A   Clear
1:55 AM 32.0 °F - 32.0 °F 100% 30.09 in 10.0 mi Calm Calm - N/A   Clear
2:35 AM 32.0 °F - 32.0 °F 100% 30.09 in 10.0 mi Calm Calm - N/A   Clear
2:55 AM 32.0 °F - 32.0 °F 100% 30.09 in 10.0 mi Calm Calm - N/A   Clear
3:15 AM 32.0 °F 28.7 °F 32.0 °F 100% 30.10 in 10.0 mi NW 3.5 mph - N/A   Clear
3:35 AM 32.0 °F - 32.0 °F 100% 30.10 in 10.0 mi Calm Calm - N/A   Clear
3:55 AM 32.0 °F - 32.0 °F 100% 30.09 in 10.0 mi Calm Calm - N/A   Clear
4:15 AM 32.0 °F - 32.0 °F 100% 30.10 in 10.0 mi Calm Calm - N/A   Clear
4:35 AM 32.0 °F - 32.0 °F 100% 30.09 in 10.0 mi Calm Calm - N/A   Clear
4:55 AM 32.0 °F - 32.0 °F 100% 30.09 in 10.0 mi Calm Calm - N/A   Clear
5:15 AM 32.0 °F - 32.0 °F 100% 30.09 in 10.0 mi Calm Calm - N/A   Clear
5:35 AM 32.0 °F - 30.2 °F 93% 30.10 in 10.0 mi Calm Calm - N/A   Clear
6:15 AM 30.2 °F - 30.2 °F 100% 30.13 in 10.0 mi Calm Calm - N/A   Clear
6:35 AM 30.2 °F 26.7 °F 30.2 °F 100% 30.13 in 10.0 mi NNW 3.5 mph - N/A   Clear
6:55 AM 32.0 °F - 32.0 °F 100% 30.14 in 10.0 mi Calm Calm - N/A   Clear
7:35 AM 32.0 °F 28.7 °F 32.0 °F 100% 30.14 in 10.0 mi ENE 3.5 mph - N/A   Clear
7:55 AM 33.8 °F 30.8 °F 33.8 °F 100% 30.14 in 10.0 mi ENE 3.5 mph - N/A   Clear
9:15 AM 41.0 °F 36.4 °F 35.6 °F 81% 30.16 in 10.0 mi East 6.9 mph - N/A   Clear
10:35 AM 44.6 °F 42.2 °F 35.6 °F 71% 30.15 in 10.0 mi ESE 4.6 mph - N/A   Clear
11:15 AM 48.2 °F - 37.4 °F 66% 30.14 in 10.0 mi Calm Calm - N/A   Clear
11:35 AM 50.0 °F - 35.6 °F 58% 30.13 in 10.0 mi Calm Calm - N/A   Clear
11:55 AM 50.0 °F - 35.6 °F 58% 30.12 in 10.0 mi South 3.5 mph - N/A   Clear
12:15 PM 51.8 °F - 35.6 °F 54% 30.10 in 10.0 mi SE 3.5 mph - N/A   Clear
12:35 PM 51.8 °F - 35.6 °F 54% 30.09 in 10.0 mi SSE 4.6 mph - N/A   Clear
12:55 PM 51.8 °F - 35.6 °F 54% 30.09 in 10.0 mi SSW 3.5 mph - N/A   Clear
1:15 PM 53.6 °F - 35.6 °F 51% 30.07 in 10.0 mi ENE 4.6 mph - N/A   Clear
1:35 PM 53.6 °F - 35.6 °F 51% 30.06 in 10.0 mi Calm Calm - N/A   Clear
1:55 PM 53.6 °F - 35.6 °F 51% 30.06 in 10.0 mi Calm Calm - N/A   Clear
2:15 PM 53.6 °F - 35.6 °F 51% 30.06 in 10.0 mi Calm Calm - N/A   Scattered Clouds
2:35 PM 53.6 °F - 35.6 °F 51% 30.05 in 10.0 mi SE 4.6 mph - N/A   Scattered Clouds
2:55 PM 53.6 °F - 35.6 °F 51% 30.04 in 10.0 mi Calm Calm - N/A   Scattered Clouds
3:55 PM 53.6 °F - 37.4 °F 54% 30.04 in 10.0 mi ESE 3.5 mph - N/A   Scattered Clouds
4:15 PM 53.6 °F - 37.4 °F 54% 30.04 in 10.0 mi Calm Calm - N/A   Scattered Clouds
4:35 PM 53.6 °F - 39.2 °F 58% 30.04 in 10.0 mi NNE 3.5 mph - N/A   Clear
4:55 PM 51.8 °F - 41.0 °F 67% 30.03 in 10.0 mi East 3.5 mph - N/A   Clear
5:15 PM 51.8 °F - 41.0 °F 67% 30.04 in 10.0 mi Calm Calm - N/A   Scattered Clouds
5:55 PM 50.0 °F - 41.0 °F 71% 30.05 in 10.0 mi Calm Calm - N/A   Clear
6:15 PM 48.2 °F - 42.8 °F 82% 30.05 in 10.0 mi Calm Calm - N/A   Clear
6:35 PM 48.2 °F - 42.8 °F 82% 30.06 in 10.0 mi Calm Calm - N/A   Clear
6:55 PM 46.4 °F - 42.8 °F 87% 30.05 in 10.0 mi Calm Calm - N/A   Scattered Clouds
7:15 PM 46.4 °F 43.5 °F 42.8 °F 87% 30.04 in 10.0 mi East 5.8 mph - N/A   Scattered Clouds
7:35 PM 46.4 °F 42.9 °F 42.8 °F 87% 30.02 in 10.0 mi East 6.9 mph - N/A   Mostly Cloudy
7:55 PM 46.4 °F 44.3 °F 42.8 °F 87% 30.02 in 10.0 mi East 4.6 mph - N/A   Overcast
8:15 PM 48.2 °F - 42.8 °F 82% 30.02 in 10.0 mi Calm Calm - N/A   Overcast
8:35 PM 46.4 °F - 42.8 °F 87% 30.02 in 10.0 mi Calm Calm - N/A   Overcast
9:15 PM 46.4 °F - 42.8 °F 87% 30.01 in 10.0 mi Calm Calm - N/A   Mostly Cloudy
9:55 PM 46.4 °F 45.2 °F 42.8 °F 87% 30.01 in 10.0 mi North 3.5 mph - N/A   Clear
10:15 PM 46.4 °F 45.2 °F 42.8 °F 87% 30.00 in 10.0 mi North 3.5 mph - N/A   Scattered Clouds
10:35 PM 44.6 °F 41.4 °F 44.6 °F 100% 29.97 in 10.0 mi East 5.8 mph - N/A   Clear
10:55 PM 46.4 °F 42.9 °F 44.6 °F 93% 29.96 in 10.0 mi East 6.9 mph - N/A   Clear
11:15 PM 46.4 °F 44.3 °F 44.6 °F 93% 29.96 in 10.0 mi East 4.6 mph - N/A   Clear
11:35 PM 46.4 °F 45.2 °F 44.6 °F 93% 29.95 in 10.0 mi East 3.5 mph - N/A   Clear